STARLINK-3744, 52304

Orbit data source: Space-Track

STARLINK-3744, 52304 is a payload satellite owned by SpaceX/Seattle (US) in LEO that was launched on Thu, 21 Apr 2022 UTC via an FALCON 9 launch vehicle from the Air Force Eastern Test Range (AFETR). Payload-class satellites include a variety of spacecraft equipped with specific instruments for various scientific and technological missions. These include communications satellites like Starlink; space stations such as the ISS; scientific satellites like the Hubble; Earth observation satellites from companies like Planet Labs, Umbra, and HawkEye 360; GPS; miniature CubeSats for education and research; and military/defense satellites.

Loading next visibility...
Identifier
52304, 2022-041AV
Orbit
LEO
Country
Flag of USUS
Related business
Manufacturer
SpaceX/Seattle
Mission
Operational Commercial Communications
Bus & Motor
STARLINK, Unknown motor
Mass
297 kg wet, ~275 kg dry
Launch date (UTC)
2022-04-21 (4 years ago)
Launch vehicle
FALCON 9
Launch site
Air Force Eastern Test Range (AFETR)
Object type
Payload
Rocket body
Debris
Shape & HBR
Box + 1 Pan, 10.1 m
Radar Cross Section
11.087 m², Large (>1 m²)

Expand to show TLE details & history
Last TLE update: 20 hours ago

TLE from 20 hours ago
0 STARLINK-3744
1 52304U 22041AV  26175.15788059  .00000294  00000-0  36549-4 0  9993
2 52304  53.1612 331.0285 0001162  87.7547 272.3578 15.08835250230718
Epoch: 2026-06-24T03:47Z
TLE epoch observation values (Epoch: 2026-06-24T03:47:20.882Z)
Latitude
-0°
Longitude
1.87237°
Altitude
540.616 km
Speed
7.593 km/s
True Right ascension
22h 04m 06s
True Declination
0° 00' 00"
Sunlit
Object was in full shadow at epoch
Visualization orbit readout
Latitude
Unknown
Longitude
Unknown
Altitude
Unknown
Speed
Unknown
Apparent Right ascension
Unknown
Apparent Declination
Unknown
Sunlit
N/A
Visualization observer readout
Local Sidereal Time
10:34:56
Azimuth
Unknown
Elevation
Unknown
Doppler factor
Unknown
Orbital elements
Apogee altitude
540.816 km
Perigee altitude
539.208 km
Semi-major axis
6,918.149 km
Eccentricity
0.00012
Inclination
53.1612°
RAAN
331.0285°
Arg. of periapsis
87.7547°
True anomaly
272.3445°
Mean anomaly
272.3578°
Eccentric anomaly
272.35115°
Mean motion
3.77188 °/min
Orbital period
95.44 mins
BSTAR
0.000036549
Loading maneuver chart data...
Computing Atmospheric mass density...
Loading historical data...
Loading historical data...
Loading historical data...
Loading historical data...
Loading historical data...
Loading historical data...
Loading historical data...

Documentation

Showing up to 5 results
|